Storm Events Database

Event Details

Event Thunderstorm Wind
Magnitude 50 kts.
State ALABAMA
County/Area ST. CLAIR
WFO BMX
Report Source Emergency Manager
NCDC Data Source CSV
Begin Date 2009-06-15 20:30:00.0 CST-6
Begin Location 2W STEELE
Begin Lat/Lon 33.93/-86.24
End Date 2009-06-15 20:30:00.0 CST-6
Deaths Direct/Indirect 0/0 (fatality details below, when available...)
Injuries Direct/Indirect 0/0
Property Damage 3.00K
Crop Damage 0.00K
Episode Narrative A warm unstable air mass, and several upper level disturbances, helped spark a multi-day period of strong to severe thunderstorms. Several clusters of thunderstorms, including apparent derechos, caused widespread wind damage and isolated reports of large hail across central Alabama.
Event Narrative Chandler Mountain Road, west of Steele, had to be completely closed due to multiple trees that were blown down across it.


     ‚Äč



All events for this episode:

Location County/Zone St. Date Time T.Z. Type Mag Dth Inj PrD CrD
Totals: 0 3 651.50K 0.00K
FERNBANK LAMAR CO. AL 06/12/2009 14:17 CST-6 Hail 0.75 in. 0 0 0.00K 0.00K
KINGVILLE LAMAR CO. AL 06/12/2009 14:20 CST-6 Thunderstorm Wind 55 kts. EG 0 0 5.00K 0.00K
CROSSVILLE LAMAR CO. AL 06/12/2009 14:25 CST-6 Thunderstorm Wind 50 kts. EG 0 0 2.00K 0.00K
VERNON LAMAR CO ARPT LAMAR CO. AL 06/12/2009 14:25 CST-6 Hail 0.75 in. 0 0 0.00K 0.00K
BELK FAYETTE CO. AL 06/12/2009 14:31 CST-6 Thunderstorm Wind 50 kts. EG 0 0 20.00K 0.00K
HALEYVILLE WINSTON CO. AL 06/12/2009 15:03 CST-6 Hail 0.75 in. 0 0 0.00K 0.00K
SAMANTHA TUSCALOOSA CO. AL 06/12/2009 15:11 CST-6 Thunderstorm Wind 50 kts. EG 0 0 1.00K 0.00K
REFORM PICKENS CO. AL 06/12/2009 15:25 CST-6 Hail 1.00 in. 0 0 0.00K 0.00K
ABERNANT TUSCALOOSA CO. AL 06/12/2009 15:56 CST-6 Thunderstorm Wind 45 kts. EG 0 0 2.00K 0.00K
ALABASTER SHELBY CO. AL 06/12/2009 16:36 CST-6 Hail 1.00 in. 0 0 0.00K 0.00K
ETHELSVILLE PICKENS CO. AL 06/12/2009 16:36 CST-6 Thunderstorm Wind 50 kts. EG 0 0 1.00K 0.00K
HOLMAN TUSCALOOSA CO. AL 06/12/2009 16:37 CST-6 Thunderstorm Wind 50 kts. EG 0 0 2.00K 0.00K
CARLISLE ETOWAH CO. AL 06/12/2009 17:18 CST-6 Thunderstorm Wind 40 kts. EG 0 0 0.50K 0.00K
DETROIT LAMAR CO. AL 06/12/2009 17:40 CST-6 Thunderstorm Wind 60 kts. EG 0 0 20.00K 0.00K
BARNESVILLE MARION CO. AL 06/12/2009 17:53 CST-6 Thunderstorm Wind 50 kts. EG 0 0 1.00K 0.00K
CREWS LAMAR CO. AL 06/12/2009 17:57 CST-6 Thunderstorm Wind 50 kts. EG 0 0 2.00K 0.00K
MOLLOY LAMAR CO. AL 06/12/2009 17:57 CST-6 Thunderstorm Wind 56 kts. MG 0 0 0.00K 0.00K
HACKLEBURG MARION CO. AL 06/12/2009 18:01 CST-6 Thunderstorm Wind 50 kts. EG 0 0 5.00K 0.00K
HACKLEBURG MARION CO. AL 06/12/2009 18:01 CST-6 Thunderstorm Wind 55 kts. EG 0 0 3.00K 0.00K
VERNON LAMAR CO. AL 06/12/2009 18:05 CST-6 Thunderstorm Wind 54 kts. MG 0 0 0.00K 0.00K
BLUFF FAYETTE CO. AL 06/12/2009 18:06 CST-6 Thunderstorm Wind 50 kts. EG 0 0 2.00K 0.00K
GUIN MARION CO. AL 06/12/2009 18:10 CST-6 Hail 0.75 in. 0 0 0.00K 0.00K
VERNON LAMAR CO. AL 06/12/2009 18:10 CST-6 Thunderstorm Wind 55 kts. EG 0 0 2.00K 0.00K
WHITEHOUSE MARION CO. AL 06/12/2009 18:10 CST-6 Thunderstorm Wind 50 kts. EG 0 0 2.00K 0.00K
WINFIELD MARION CO. AL 06/12/2009 18:12 CST-6 Thunderstorm Wind 45 kts. EG 0 0 0.50K 0.00K
BELK FAYETTE CO. AL 06/12/2009 18:13 CST-6 Thunderstorm Wind 55 kts. EG 0 0 10.00K 0.00K
VERNON LAMAR CO. AL 06/12/2009 18:15 CST-6 Hail 1.00 in. 0 0 0.00K 0.00K
HALEYVILLE WINSTON CO. AL 06/12/2009 18:19 CST-6 Thunderstorm Wind 56 kts. EG 0 0 30.00K 0.00K
HALEYVILLE WINSTON CO. AL 06/12/2009 18:20 CST-6 Thunderstorm Wind 50 kts. EG 0 0 5.00K 0.00K
VERNON LAMAR CO. AL 06/12/2009 18:27 CST-6 Flash Flood 0 0 0.00K 0.00K
MARIGOLD WALKER CO. AL 06/12/2009 18:36 CST-6 Thunderstorm Wind 50 kts. EG 0 0 15.00K 0.00K
CORNER JEFFERSON CO. AL 06/12/2009 19:00 CST-6 Thunderstorm Wind 52 kts. EG 0 0 0.00K 0.00K
PLEASANT GROVE JEFFERSON CO. AL 06/12/2009 19:05 CST-6 Thunderstorm Wind 50 kts. EG 0 0 2.00K 0.00K
HAYDEN BLOUNT CO. AL 06/12/2009 19:10 CST-6 Thunderstorm Wind 50 kts. EG 0 0 5.00K 0.00K
MULGA MINE JEFFERSON CO. AL 06/12/2009 19:11 CST-6 Thunderstorm Wind 50 kts. EG 0 0 2.00K 0.00K
FAIRFIELD HGTS JEFFERSON CO. AL 06/12/2009 19:14 CST-6 Thunderstorm Wind 50 kts. EG 0 0 3.00K 0.00K
GENERY SHELBY CO. AL 06/12/2009 19:24 CST-6 Thunderstorm Wind 50 kts. EG 0 0 2.00K 0.00K
QUITO SHELBY CO. AL 06/12/2009 19:24 CST-6 Thunderstorm Wind 52 kts. EG 0 0 0.00K 0.00K
WOODLAWN JEFFERSON CO. AL 06/12/2009 19:24 CST-6 Thunderstorm Wind 52 kts. EG 0 0 50.00K 0.00K
PELHAM SHELBY CO. AL 06/12/2009 19:26 CST-6 Thunderstorm Wind 50 kts. EG 0 0 1.00K 0.00K
PARSONS ST. CLAIR CO. AL 06/12/2009 19:36 CST-6 Thunderstorm Wind 40 kts. EG 0 0 0.50K 0.00K
SANIE ST. CLAIR CO. AL 06/12/2009 19:36 CST-6 Thunderstorm Wind 40 kts. EG 0 0 10.00K 0.00K
EUTAW GREENE CO. AL 06/12/2009 19:37 CST-6 Thunderstorm Wind 50 kts. EG 0 0 2.00K 0.00K
COOKS SPGS ST. CLAIR CO. AL 06/12/2009 19:38 CST-6 Thunderstorm Wind 56 kts. EG 0 0 0.00K 0.00K
CROPWELL ST. CLAIR CO. AL 06/12/2009 19:46 CST-6 Thunderstorm Wind 50 kts. EG 0 0 2.00K 0.00K
GADSDEN ETOWAH CO. AL 06/12/2009 19:48 CST-6 Thunderstorm Wind 45 kts. EG 0 0 1.00K 0.00K
WESTOVER SHELBY CO. AL 06/12/2009 19:48 CST-6 Thunderstorm Wind 50 kts. EG 0 0 2.00K 0.00K
BON AIR TALLADEGA CO. AL 06/12/2009 19:50 CST-6 Thunderstorm Wind 50 kts. EG 0 0 3.00K 0.00K
GANTT JCT TALLADEGA CO. AL 06/12/2009 19:50 CST-6 Thunderstorm Wind 50 kts. EG 0 0 12.00K 0.00K
STEMLEY TALLADEGA CO. AL 06/12/2009 19:50 CST-6 Thunderstorm Wind 45 kts. EG 0 0 1.00K 0.00K
LINCOLN TALLADEGA CO. AL 06/12/2009 19:55 CST-6 Thunderstorm Wind 50 kts. EG 0 1 3.00K 0.00K
CLANTON GRAGG ARPT CHILTON CO. AL 06/12/2009 20:00 CST-6 Thunderstorm Wind 60 kts. EG 0 0 25.00K 0.00K
CLANTON GRAGG ARPT CHILTON CO. AL 06/12/2009 20:00 CST-6 Thunderstorm Wind 50 kts. EG 0 0 2.00K 0.00K
NELSON SHELBY CO. AL 06/12/2009 20:00 CST-6 Thunderstorm Wind 50 kts. EG 0 0 2.00K 0.00K
NEWSITE TALLAPOOSA CO. AL 06/12/2009 20:17 CST-6 Thunderstorm Wind 50 kts. EG 0 0 1.00K 0.00K
BEVELLE TALLAPOOSA CO. AL 06/12/2009 20:25 CST-6 Thunderstorm Wind 50 kts. EG 0 0 2.00K 0.00K
ASHLAND CLAY CO. AL 06/12/2009 20:30 CST-6 Thunderstorm Wind 50 kts. EG 0 0 5.00K 0.00K
PINE TUCKEY RANDOLPH CO. AL 06/12/2009 20:35 CST-6 Thunderstorm Wind 40 kts. EG 0 0 1.00K 0.00K
INDEPENDENCE AUTAUGA CO. AL 06/12/2009 20:37 CST-6 Thunderstorm Wind 43 kts. EG 0 0 5.00K 0.00K
HAYWOOD RANDOLPH CO. AL 06/12/2009 20:42 CST-6 Thunderstorm Wind 43 kts. EG 0 0 1.00K 0.00K
BOOTH AUTAUGA CO. AL 06/12/2009 20:48 CST-6 Thunderstorm Wind 40 kts. EG 0 0 0.50K 0.00K
(ANB)ANNISTON CALHOU CALHOUN CO. AL 06/12/2009 20:51 CST-6 Thunderstorm Wind 39 kts. EG 0 0 2.00K 0.00K
BARNESVILLE MARION CO. AL 06/14/2009 08:56 CST-6 Thunderstorm Wind 50 kts. EG 0 0 3.00K 0.00K
DETROIT LAMAR CO. AL 06/14/2009 09:04 CST-6 Thunderstorm Wind 50 kts. EG 0 0 2.00K 0.00K
DETROIT LAMAR CO. AL 06/14/2009 09:06 CST-6 Thunderstorm Wind 50 kts. EG 0 0 2.00K 0.00K
GUIN MARION CO. AL 06/14/2009 09:15 CST-6 Thunderstorm Wind 50 kts. EG 0 0 2.00K 0.00K
NATURAL BRIDGE WINSTON CO. AL 06/14/2009 09:29 CST-6 Thunderstorm Wind 50 kts. EG 0 0 2.00K 0.00K
DELMAR WINSTON CO. AL 06/14/2009 09:30 CST-6 Thunderstorm Wind 50 kts. EG 0 0 2.00K 0.00K
DOUBLE SPGS WINSTON CO. AL 06/14/2009 09:40 CST-6 Thunderstorm Wind 50 kts. EG 0 0 1.00K 0.00K
FAYETTE FAYETTE CO. AL 06/14/2009 09:42 CST-6 Thunderstorm Wind 40 kts. EG 0 0 0.50K 0.00K
SARAGOSSA WALKER CO. AL 06/14/2009 09:50 CST-6 Thunderstorm Wind 55 kts. EG 0 0 50.00K 0.00K
JASPER WALKER CO ARP WALKER CO. AL 06/14/2009 10:00 CST-6 Thunderstorm Wind 50 kts. EG 0 0 1.00K 0.00K
SAMANTHA TUSCALOOSA CO. AL 06/14/2009 10:10 CST-6 Thunderstorm Wind 50 kts. EG 0 0 2.00K 0.00K
ADVILLE BLOUNT CO. AL 06/14/2009 10:13 CST-6 Thunderstorm Wind 50 kts. EG 0 0 2.00K 0.00K
CAHABA HGTS JEFFERSON CO. AL 06/14/2009 10:25 CST-6 Thunderstorm Wind 50 kts. EG 0 0 2.00K 0.00K
SAMANTHA TUSCALOOSA CO. AL 06/14/2009 10:26 CST-6 Thunderstorm Wind 50 kts. EG 0 0 2.00K 0.00K
HAYDEN BLOUNT CO. AL 06/14/2009 10:28 CST-6 Thunderstorm Wind 50 kts. EG 0 0 2.00K 0.00K
PLEASANT GROVE JEFFERSON CO. AL 06/14/2009 10:28 CST-6 Thunderstorm Wind 40 kts. EG 0 0 1.00K 0.00K
PARAMOUNT SHELBY CO. AL 06/14/2009 10:30 CST-6 Thunderstorm Wind 50 kts. EG 0 0 1.00K 0.00K
BROOKWOOD TUSCALOOSA CO. AL 06/14/2009 10:33 CST-6 Thunderstorm Wind 40 kts. EG 0 0 0.50K 0.00K
DOLOMITE JEFFERSON CO. AL 06/14/2009 10:34 CST-6 Thunderstorm Wind 50 kts. EG 0 0 2.00K 0.00K
BLOUNTSVILLE BLOUNT CO. AL 06/14/2009 10:35 CST-6 Thunderstorm Wind 50 kts. EG 0 0 2.00K 0.00K
FAIRVIEW JEFFERSON CO. AL 06/14/2009 10:37 CST-6 Thunderstorm Wind 50 kts. EG 0 0 2.00K 0.00K
HOWTON TUSCALOOSA CO. AL 06/14/2009 10:40 CST-6 Thunderstorm Wind 45 kts. EG 0 0 0.50K 0.00K
SPAULDING JEFFERSON CO. AL 06/14/2009 10:41 CST-6 Thunderstorm Wind 50 kts. EG 0 0 2.00K 0.00K
VESTAVIA HILLS JEFFERSON CO. AL 06/14/2009 10:41 CST-6 Thunderstorm Wind 56 kts. EG 0 0 0.00K 0.00K
ROSA BLOUNT CO. AL 06/14/2009 10:43 CST-6 Thunderstorm Wind 50 kts. EG 0 0 2.00K 0.00K
ACIPCO JEFFERSON CO. AL 06/14/2009 10:52 CST-6 Flash Flood 0 0 0.00K 0.00K
ODENVILLE ST. CLAIR CO. AL 06/14/2009 10:54 CST-6 Thunderstorm Wind 50 kts. EG 0 0 2.00K 0.00K
PARAMOUNT SHELBY CO. AL 06/14/2009 11:00 CST-6 Flash Flood 0 0 10.00K 0.00K
PARAMOUNT SHELBY CO. AL 06/14/2009 11:02 CST-6 Thunderstorm Wind 50 kts. EG 0 0 1.00K 0.00K
SIMMSVILLE SHELBY CO. AL 06/14/2009 11:02 CST-6 Thunderstorm Wind 50 kts. EG 0 0 1.00K 0.00K
ONEONTA BLOUNT CO. AL 06/14/2009 11:03 CST-6 Thunderstorm Wind 50 kts. EG 0 0 2.00K 0.00K
COLUMBIANA SHELBY CO. AL 06/14/2009 11:18 CST-6 Thunderstorm Wind 50 kts. EG 0 0 20.00K 0.00K
MOSTELLERS SHELBY CO. AL 06/14/2009 11:20 CST-6 Thunderstorm Wind 50 kts. EG 0 0 2.00K 0.00K
BON AIR TALLADEGA CO. AL 06/14/2009 11:22 CST-6 Thunderstorm Wind 45 kts. EG 0 0 1.00K 0.00K
EASTABOGA TALLADEGA CO. AL 06/14/2009 11:25 CST-6 Thunderstorm Wind 45 kts. EG 0 0 0.50K 0.00K
TALLADEGA TALLADEGA CO. AL 06/14/2009 11:36 CST-6 Thunderstorm Wind 45 kts. EG 0 0 0.50K 0.00K
MARBURY AUTAUGA CO. AL 06/14/2009 11:46 CST-6 Thunderstorm Wind 50 kts. EG 0 0 2.00K 0.00K
ASHLAND CLAY CO. AL 06/14/2009 11:50 CST-6 Thunderstorm Wind 50 kts. EG 0 0 1.00K 0.00K
BILLINGSLEY AUTAUGA CO. AL 06/14/2009 11:53 CST-6 Thunderstorm Wind 50 kts. EG 0 0 2.00K 0.00K
LINEVILLE CLAY CO. AL 06/14/2009 11:54 CST-6 Thunderstorm Wind 50 kts. EG 0 0 3.00K 0.00K
WADSWORTH AUTAUGA CO. AL 06/14/2009 11:55 CST-6 Thunderstorm Wind 50 kts. EG 0 0 2.00K 0.00K
SANTUCK ELMORE CO. AL 06/14/2009 12:05 CST-6 Thunderstorm Wind 55 kts. EG 0 0 20.00K 0.00K
ALEXANDER CITY TALLAPOOSA CO. AL 06/14/2009 12:06 CST-6 Thunderstorm Wind 50 kts. EG 0 0 2.00K 0.00K
INDEPENDENCE AUTAUGA CO. AL 06/14/2009 12:08 CST-6 Thunderstorm Wind 50 kts. EG 0 0 12.00K 0.00K
WETUMPKA ELMORE CO. AL 06/14/2009 12:09 CST-6 Thunderstorm Wind 50 kts. EG 0 0 2.00K 0.00K
COOSADA ELMORE CO. AL 06/14/2009 12:12 CST-6 Thunderstorm Wind 45 kts. EG 0 0 0.50K 0.00K
PRATTMONT AUTAUGA CO. AL 06/14/2009 12:13 CST-6 Thunderstorm Wind 50 kts. EG 0 0 3.00K 0.00K
BARNESVILLE TALLAPOOSA CO. AL 06/14/2009 12:14 CST-6 Thunderstorm Wind 50 kts. EG 0 0 10.00K 0.00K
MALONE RANDOLPH CO. AL 06/14/2009 12:18 CST-6 Thunderstorm Wind 50 kts. EG 0 0 1.00K 0.00K
REELTOWN TALLAPOOSA CO. AL 06/14/2009 12:36 CST-6 Thunderstorm Wind 50 kts. EG 0 0 3.00K 0.00K
PINEDALE MONTGOMERY CO. AL 06/14/2009 12:48 CST-6 Thunderstorm Wind 50 kts. EG 0 0 2.00K 0.00K
AUBURN LEE CO. AL 06/14/2009 12:55 CST-6 Thunderstorm Wind 50 kts. EG 0 0 3.00K 0.00K
BEEHIVE LEE CO. AL 06/14/2009 12:55 CST-6 Thunderstorm Wind 50 kts. EG 0 0 2.00K 0.00K
BANKS PIKE CO. AL 06/14/2009 13:26 CST-6 Thunderstorm Wind 50 kts. EG 0 0 1.00K 0.00K
TROY PIKE CO. AL 06/14/2009 13:26 CST-6 Thunderstorm Wind 50 kts. EG 0 0 2.00K 0.00K
SPRING HILL PIKE CO. AL 06/14/2009 13:35 CST-6 Thunderstorm Wind 50 kts. EG 0 0 10.00K 0.00K
PHENIX CITY RUSSELL CO. AL 06/14/2009 13:48 CST-6 Thunderstorm Wind 50 kts. EG 0 0 1.00K 0.00K
EUFAULA BARBOUR CO. AL 06/14/2009 14:00 CST-6 Thunderstorm Wind 50 kts. EG 0 0 3.00K 0.00K
ALSTON BARBOUR CO. AL 06/14/2009 14:41 CST-6 Thunderstorm Wind 50 kts. EG 0 0 2.00K 0.00K
BEXAR MARION CO. AL 06/15/2009 19:40 CST-6 Thunderstorm Wind 50 kts. EG 0 0 2.00K 0.00K
SUMMIT BLOUNT CO. AL 06/15/2009 19:51 CST-6 Thunderstorm Wind 50 kts. EG 0 0 2.00K 0.00K
HIGHMOUND BLOUNT CO. AL 06/15/2009 19:54 CST-6 Thunderstorm Wind 50 kts. EG 0 0 2.00K 0.00K
LOCUST FORK BLOUNT CO. AL 06/15/2009 20:03 CST-6 Thunderstorm Wind 50 kts. EG 0 0 2.00K 0.00K
BLOUNT SPGS BLOUNT CO. AL 06/15/2009 20:08 CST-6 Thunderstorm Wind 50 kts. EG 0 0 2.00K 0.00K
ONEONTA BLOUNT CO. AL 06/15/2009 20:08 CST-6 Thunderstorm Wind 50 kts. EG 0 0 2.00K 0.00K
WYNNVILLE BLOUNT CO. AL 06/15/2009 20:08 CST-6 Thunderstorm Wind 61 kts. EG 0 2 30.00K 0.00K
DETROIT LAMAR CO. AL 06/15/2009 20:12 CST-6 Thunderstorm Wind 50 kts. EG 0 0 2.00K 0.00K
DIXIANA JEFFERSON CO. AL 06/15/2009 20:12 CST-6 Thunderstorm Wind 50 kts. EG 0 0 2.00K 0.00K
ONEONTA ROBBINS ARPT BLOUNT CO. AL 06/15/2009 20:15 CST-6 Thunderstorm Wind 50 kts. EG 0 0 30.00K 0.00K
WHITNEY ST. CLAIR CO. AL 06/15/2009 20:20 CST-6 Thunderstorm Wind 50 kts. EG 0 0 1.00K 0.00K
SPRINGVILLE ST. CLAIR CO. AL 06/15/2009 20:30 CST-6 Thunderstorm Wind 50 kts. EG 0 0 2.00K 0.00K
STEELE ST. CLAIR CO. AL 06/15/2009 20:30 CST-6 Thunderstorm Wind 50 kts. EG 0 0 3.00K 0.00K
STEELE ST. CLAIR CO. AL 06/15/2009 20:30 CST-6 Thunderstorm Wind 50 kts. EG 0 0 2.00K 0.00K
STEELE ST. CLAIR CO. AL 06/15/2009 20:30 CST-6 Thunderstorm Wind 50 kts. EG 0 0 2.00K 0.00K
ALTON JEFFERSON CO. AL 06/15/2009 20:35 CST-6 Thunderstorm Wind 52 kts. EG 0 0 0.00K 0.00K
ALTON JEFFERSON CO. AL 06/15/2009 20:35 CST-6 Hail 0.88 in. 0 0 0.00K 0.00K
DUCK SPGS ETOWAH CO. AL 06/15/2009 20:50 CST-6 Hail 1.75 in. 0 0 0.00K 0.00K
GADSDEN ETOWAH CO. AL 06/15/2009 20:53 CST-6 Thunderstorm Wind 50 kts. EG 0 0 3.00K 0.00K
MIDDLETON CALHOUN CO. AL 06/15/2009 20:59 CST-6 Thunderstorm Wind 50 kts. EG 0 0 2.00K 0.00K
SHOCCO TALLADEGA CO. AL 06/15/2009 21:15 CST-6 Lightning 0 0 20.00K 0.00K
STEMLEY TALLADEGA CO. AL 06/15/2009 21:15 CST-6 Thunderstorm Wind 50 kts. EG 0 0 5.00K 0.00K
TALLADEGA TALLADEGA CO. AL 06/15/2009 21:20 CST-6 Thunderstorm Wind 50 kts. EG 0 0 1.00K 0.00K
TALLADEGA TALLADEGA CO. AL 06/15/2009 21:20 CST-6 Thunderstorm Wind 50 kts. EG 0 0 2.00K 0.00K
ANNISTON CALHOUN CO. AL 06/15/2009 21:24 CST-6 Thunderstorm Wind 50 kts. EG 0 0 15.00K 0.00K
CRESWELL SHELBY CO. AL 06/15/2009 21:40 CST-6 Thunderstorm Wind 50 kts. EG 0 0 2.00K 0.00K
CRESWELL SHELBY CO. AL 06/15/2009 21:40 CST-6 Hail 1.75 in. 0 0 2.00K 0.00K
SYCAMORE TALLADEGA CO. AL 06/15/2009 21:45 CST-6 Thunderstorm Wind 50 kts. EG 0 0 2.00K 0.00K
OLD DAVISVILLE CALHOUN CO. AL 06/15/2009 21:49 CST-6 Thunderstorm Wind 50 kts. EG 0 0 2.00K 0.00K
SYLACAUGA MERKLE ARP TALLADEGA CO. AL 06/15/2009 21:49 CST-6 Thunderstorm Wind 40 kts. EG 0 0 0.50K 0.00K
HOLLINS CLAY CO. AL 06/15/2009 22:00 CST-6 Thunderstorm Wind 50 kts. EG 0 0 1.00K 0.00K
BEVELLE TALLAPOOSA CO. AL 06/15/2009 22:31 CST-6 Thunderstorm Wind 50 kts. EG 0 0 2.00K 0.00K
JACKSONS GAP TALLAPOOSA CO. AL 06/15/2009 22:40 CST-6 Thunderstorm Wind 50 kts. EG 0 0 1.00K 0.00K
DADEVILLE TALLAPOOSA CO. AL 06/15/2009 22:48 CST-6 Thunderstorm Wind 50 kts. EG 0 0 2.00K 0.00K
BARNESVILLE TALLAPOOSA CO. AL 06/15/2009 22:52 CST-6 Thunderstorm Wind 50 kts. EG 0 0 2.00K 0.00K
TUCKABATCHIE ELMORE CO. AL 06/15/2009 23:10 CST-6 Thunderstorm Wind 50 kts. EG 0 0 1.00K 0.00K
BEEHIVE LEE CO. AL 06/15/2009 23:36 CST-6 Thunderstorm Wind 50 kts. EG 0 0 1.00K 0.00K
OPELIKA LEE CO. AL 06/15/2009 23:48 CST-6 Thunderstorm Wind 50 kts. EG 0 0 2.00K 0.00K
Totals: 0 3 651.50K 0.00K